This demonstration page uses our WeatherBlox Daily Observations layout. Learn more.

Left ArrowRight Arrow

Hourly Observations for October 15, 2022

Temp ( °F °C ) Dew Point ( °F °C ) Humidity (%) Winds ( mph kmh ) Pressure ( in mb ) Visibility ( mi km ) Precip ( " mm )
12:51 am 00:51 Clear 67 19.4 49 9.4 52 52 SE 7 11 29.80 1009 10 16 0.00 0.00
1:51 am 01:51 Clear 64 17.8 50 10 60 60 NW 5 7 29.80 1009 10 16 0.00 0.00
2:51 am 02:51 Clear 61 16.1 50 10 67 67 ESE 3 6 29.81 1010 10 16 0.00 0.00
3:51 am 03:51 Clear 58 14.4 49 9.4 72 72 ESE 5 7 29.82 1010 10 16 0.00 0.00
4:51 am 04:51 Clear 58 14.4 49 9.4 72 72 E 6 9 29.84 1011 10 16 0.00 0.00
5:51 am 05:51 Clear 56 13.3 48 8.9 75 75 NE 3 6 29.85 1011 10 16 0.00 0.00
6:51 am 06:51 Mostly Cloudy 58 14.4 49 9.4 72 72 SE 5 7 29.88 1012 10 16 0.00 0.00
7:51 am 07:51 Sunny 64 17.8 50 10 60 60 E 5 7 29.87 1012 10 16 0.00 0.00
8:51 am 08:51 Sunny 73 22.8 48 8.9 41 41 ESE 17 28 29.87 1011 10 16 0.00 0.00
9:51 am 09:51 Mostly Sunny 78 25.6 49 9.4 36 36 E 10 17 29.84 1010 10 16 0.00 0.00
10:51 am 10:51 Mostly Cloudy 78 25.6 49 9.4 36 36 E 8 13 29.82 1010 10 16 0.00 0.00
11:51 am 11:51 Cloudy 80 26.7 49 9.4 34 34 S 12 19 29.80 1009 10 16 0.00 0.00
12:42 pm 12:42 Partly Cloudy with Nearby Thunderstorms 81 27.2 49 9.4 33 33 SSE 9 15 29.69 1005 10 16 0.00 0.00
12:51 pm 12:51 Partly Cloudy with Nearby Thunderstorms 81 27.2 48 8.9 32 32 SSE 8 13 29.77 1008 10 16 0.00 0.00
12:59 pm 12:59 Mostly Cloudy 81 27.2 49 9.4 33 33 SSE 9 15 29.69 1005 10 16 0.00 0.00
1:51 pm 13:51 Sunny 82 27.8 50 10 33 33 S 16 26 29.75 1008 10 16 0.00 0.00
2:51 pm 14:51 Mostly Sunny 81 27.2 51 10.6 35 35 SSE 12 19 29.74 1007 10 16 0.00 0.00
3:51 pm 15:51 undefined 84 28.9 51 10.6 32 32 SSE 16 26 29.72 1007 10 16 0.00 0.00
4:51 pm 16:51 Sunny 80 26.7 52 11.1 38 38 S 8 13 29.70 1006 10 16 0.00 0.00
5:51 pm 17:51 Mostly Cloudy with Light Rain 70 21.1 61 16.1 73 73 SE 8 13 29.74 1007 10 16 0.01 0.13
6:51 pm 18:51 Clear 69 20.6 59 15 70 70 E 8 13 29.76 1008 10 16 0.01 0.13
7:22 pm 19:22 Clear with Nearby Thunderstorms 70 21.1 57 13.9 63 63 E 14 22 29.73 1007 10 16 0.00 0.00
7:37 pm 19:37 Mostly Clear 71 21.7 56 13.3 59 59 E 12 19 29.72 1006 10 16 0.00 0.00
7:51 pm 19:51 Mostly Cloudy 71 21.7 56 13.3 59 59 E 10 17 29.76 1008 10 16 0.00 0.00
8:23 pm 20:23 Mostly Clear with Nearby Thunderstorms 70 21.1 55 12.8 59 59 ENE 6 9 29.75 1007 10 16 0.00 0.00
8:38 pm 20:38 Clear 69 20.6 55 12.8 61 61 WNW 7 11 29.76 1008 10 16 0.00 0.00
8:51 pm 20:51 Clear 68 20 56 13.3 65 65 WNW 8 13 29.78 1008 10 16 0.00 0.00
9:51 pm 21:51 Clear 63 17.2 57 13.9 81 81 W 6 9 29.79 1009 10 16 0.00 0.00
10:51 pm 22:51 Mostly Clear 62 16.7 58 14.4 86 86 W 7 11 29.81 1010 10 16 0.00 0.00
11:51 pm 23:51 Clear 61 16.1 58 14.4 90 90 NNW 3 6 29.81 1010 10 16 0.00 0.00

Powered by AerisWeather